Regional Weather Roundup
Issued by NWS Charleston, SC

Current Version | Previous Version | Text Only | Print | Product List | Glossary Off
Versions: 1 2 3 4 5 6 7 8 9 10 11 12 13 14 15 16 17 18 19 20 21 22 23 24 25 26 27 28 29 30 31 32 33 34 35 36 37 38 39 40 41 42 43 44 45 46 47 48 49 50

000
ASUS42 KCHS 201712
RWRCHS

REGIONAL WEATHER ROUNDUP
NATIONAL WEATHER SERVICE CHARLESTON SC
1200 PM EST MON NOV 20 2017

NOTE: "FAIR" INDICATES FEW OR NO CLOUDS BELOW 12,000 FEET WITH NO
SIGNIFICANT WEATHER AND/OR OBSTRUCTIONS TO VISIBILITY.

NOT ALL STATIONS ARE QUALITY CONTROLLED. USE DATA WITH CAUTION...
ESPECIALLY DEWPOINT OBSERVATIONS.

SCZ027-030-031-034>040-042>050-201800-
...SOUTHEAST SOUTH CAROLINA...

CITY           SKY/WX    TMP DP  RH WIND       PRES   REMARKS
N CHARLESTON   MOSUNNY   58  31  35 VRB6      30.26F
WATERFRONT PRK NOT AVBL
JOHNS ISLAND   FAIR      59  32  36 N5        30.26F
PINOPOLIS        N/A     50  36  57 VRB2      30.20F
MONCKS CORNER  FAIR      54  28  37 N5        30.26F
SUMMERVILLE    FAIR      55  28  35 NE9       30.28F
BEAUFORT MCAS  MOSUNNY   57  34  41 E7        30.27F
BEAUFORT ARPT  FAIR      55  34  44 E6        30.26F
HILTON HEAD IS NOT AVBL
WALTERBORO     SUNNY     55  32  41 E7        30.27F
ALLENDALE      FAIR      55  30  38 VRB5      30.26F

...SOUTHERN MIDLANDS AND PEE DEE...

CITY           SKY/WX    TMP DP  RH WIND       PRES   REMARKS
GEORGETOWN     FAIR      55  32  41 E6        30.27F
KINGSTREE      FAIR      55  28  35 N6        30.27F
ORANGEBURG     SUNNY     55  29  36 E6        30.27F
BARNWELL         N/A     57  30  35 N6        30.26F
AIKEN          FAIR      52  30  43 E3        30.29F
MANNING        FAIR      55  16  21 MISG      30.28F
COLUMBIA       MOSUNNY   56  30  37 VRB3      30.27F
SUMTER         SUNNY     56  27  32 NE6       30.25F
FLORENCE       SUNNY     56  26  31 VRB6      30.28F
MYRTLE BEACH   SUNNY     56  29  35 N9        30.27F
N MYRTLE BEACH SUNNY     57  29  34 N9        30.26F

$$

GAZ063-065-086>088-099>101-113>116-118-119-134>141-150-201800-
...SOUTHEAST GEORGIA...

CITY           SKY/WX    TMP DP  RH WIND       PRES   REMARKS
SAVANNAH ARPT  PTSUNNY   62  32  32 E8        30.26F
HUNTER AAF     SUNNY     60  33  36 E9        30.23F
FORT STEWART   SUNNY     61  36  39 E8        30.23F
STATESBORO     SUNNY     59  24  26 NE6       30.25F
SYLVANIA       SUNNY     57  34  40 E5        30.27F
CLAXTON        FAIR      60  33  36 NE5       30.26F

...CSRA...CENTRAL AND FAR SOUTHEAST GEORGIA...

CITY           SKY/WX    TMP DP  RH WIND       PRES   REMARKS
THOMSON        SUNNY     53  29  40 S6        30.31F
AUGUSTA-BUSH   SUNNY     56  31  38 NE6       30.26F
AUGUSTA-DANIEL SUNNY     55  29  36 NE5       30.27F
SWAINSBORO     FAIR      57  32  38 E5        30.25F
VIDALIA        SUNNY     59  36  41 E5        30.25F
EASTMAN        FAIR      59  18  20 E5        30.27F
HAZLEHURST     FAIR      60  19  19 SE3       30.23F
ALMA           SUNNY     62  37  39 VRB6      30.23F
WAYCROSS       SUNNY     63  42  45 SE9G17    30.22F
JESUP          FAIR      64  43  45 E9        30.24F
BAXLEY         FAIR      59  34  38 E8        30.23F
BRUNSWICK      SUNNY     64  46  52 NE15      30.24F
SAINT SIMONS   SUNNY     67  50  54 NE13      30.23S

$$

SCZ027-028-034-036>038-045-046-048>050-GAZ119-141-201800-
...LAKE AND SUPPLEMENTAL COASTAL OBSERVATIONS...

STATION/POSITION TIME  TEMP    WIND        PRES    WAVE   SWELL
                       AIR SEA DIR/SP/G            HT/PER HT/PER/DIR
                 (UTC) (F)     (DEG/KT/KT) (MB)    (FT/S) (FT/S/D)
WINYAH BAY       NOT AVBL
LAKE MURRAY      1620   52      70/  1/  4 1024.7
ACE BASIN NERRS  1545   56      30/  4     1025.0
FORT PULASKI     1636   55 61   60/ 11/ 13 1025.2F
SAPELO ISLAND    1600   63      50/ 12     1024.0

$$

ANZ835-935-AMZ111-154-330-350-352-354-370-450-454-472-201800-
...C-MAN AND BUOY OBSERVATIONS...

STATION/POSITION TIME  TEMP    WIND        PRES    WAVE   SWELL
                       AIR SEA DIR/SP/G            HT/PER HT/PER/DIR
                 (UTC) (F)     (DEG/KT/KT) (MB)    (FT/S) (FT/S/D)
BUOY 41004       1650   59 74   30/ 14/ 17 1023.7R
BUOY 41008       1650   62 68   70/ 14/ 17 1023.2F   4/ 6
FOLLY BEACH CMAN 1600   52      30/ 10/ 13 1025.5S
CAPERS NEARSHORE 1608   51 63   50/ 14/ 19 1024.5F
FRIPP NEARSHORE  1608   55 62   60/ 14/ 23 1024.0F


STATION/POSITION TIME  TEMP    WIND        PRES    WAVE   SWELL
                       AIR SEA DIR/SP/G            HT/PER HT/PER/DIR
                 (UTC) (F)     (DEG/KT/KT) (MB)    (FT/S) (FT/S/D)
5E ST. MARYS GA  1630      68                N/A     4/ 5
FRYING PAN BUOY  1650   54 69   10/ 14/ 19 1024.0F   3/ 5
BUOY 41025       1700   51 67  340/ 14/ 17 1023.9
CAPE LOOKOUT NC  1600          340/  8/ 11 1025.1R
BUOY 41002       1650   65 77   30/ 14/ 17 1021.5F   7/ 7   5/320/ 7
BUOY 41010       NOT AVBL
ST AUGUSTINE FL  1700   69 67   70/ 12/ 13 1021.9F


$$




USA.gov is the U.S. government's official web portal to all federal, state and local government web resources and services.